Weather in Chuyka

Russia / Altai Republic     51°57′59″N   87°30′30″E
temp.,
°C
wind,
m/s
gust,
m/s
humid.,
%
clouds,
%
prec.,
mm/h
press.,
hPa
HPBL,
m
28 february, sun
sun2801:00−23sse1196100 0.1 104120
04:00−24sse119050 0.0 104120
07:00−25se128525 0.0 104220
10:00−18se12812 0.0 1040166
13:00−9e137521 0.0 1034503
16:00−8n2286100 0.0 1032292
19:00−11e1196100 0.0 103121
22:00−11ese1194100 0.1 103025
1 march, mon
mon101:00−10se1295100 0.4 102875
04:00−9sse2394100 0.1 1025118
07:00−9sse2493100 0.5 1022191
10:00−7sse2590100 0.4 1019356
13:00−2sse2682100 0.5 1015448
16:000ene0193100 0.2 1013204
19:00−2sse1192100 0.3 101421
22:00−2s2590100 0.1 1014199
2 march, tue
tue201:00−2s11192100 0.6 1014715
04:00−3ssw21496100 2.0 10131272
07:00−3wsw21286100 2.2 1015717
10:00−3w2989100 0.2 1016890
13:00−1wnw3684100 0.3 10161114
16:00−2nw2391100 0.3 1015537
19:00−5nne1198100 0.5 101622
22:00−5e1198100 1.1 101621
3 march, wed
wed301:00−5se1197100 1.8 101521
04:00−5sse1195100 0.2 101427
07:00−5wsw1198100 0.6 101522
10:00−3ene0197100 1.3 1014146
13:00−2n2396100 1.9 1014499
16:00−2nw2595100 1.6 1014545
19:00−8wnw3796100 4.3 1020517
22:00−11n1197100 1.2 102436
4 march, thu
thu401:00−13ene1197100 1.6 102720
04:00−15ese1195100 0.0 102720
07:00−14e1191100 0.1 102920
10:00−10ene1188100 0.0 1027129
13:00−4ne1186100 0.0 1025353
16:00−2n229481 0.0 1022306
19:00−6e119682 0.0 102429
22:00−7se1192100 0.0 102421